Flag for French Polynesia Weather past 2 weeks in Taiohae, Marquesas Islands, French Polynesia

Now
78 °F

Warm.


Feels Like: 81 °F
Forecast: 78 / 84 °F
Wind: No wind

Location: Atuona

Current Time: Apr 25, 2015 at 7:58:27 PM

Latest Report: Apr 25, 2015 at 6:30 PM


Visibility: N/A

Pressure: 29.85 "Hg

Humidity: 78%

Dew point: 71 °F

Location of TaiohaeLocation

Historic Weather in Taiohae — Graph

°F

Taiohae temperature yesterday

Maximum temperature yesterday: 85 °F (at 12:30 PM)
Minimum temperature yesterday: 78 °F (at 10:30 PM)
Average temperature yesterday: 81 °F

Past Weeks' High & Low Weather Summary

 TemperatureHumidityPressure
High92 °F (Apr 19, 10:30 AM)92% (Apr 21, 6:30 AM)29.98 "Hg (Apr 21, 6:30 AM)
Low72 °F (Apr 17, 4:30 AM)50% (Apr 18, 12:30 PM)29.77 "Hg (Apr 20, 3:30 PM)
Average81 °F74%29.86 "Hg
* Reported Apr 10 6:30 PM — Apr 25 6:30 PM, Taiohae, Weather by CustomWeather, © 2015

Note: Actual official high and low records may vary slightly from our data, if they occured in-between our weather recording intervals... More about our weather records

Advertising

Taiohae weather history for previous 24 hours

 ConditionsComfort  
Time TempWeatherWind HumidityBarometerVisibility
6:30 PM
Sat, Apr 25
78 °FWarm.No wind78%29.85 "HgN/A
4:30 PM82 °FPassing clouds.14 mph71%29.81 "Hg37 mi
3:30 PM83 °FPassing clouds.17 mph67%29.79 "Hg37 mi
2:30 PM84 °FPassing clouds.15 mph65%29.79 "Hg37 mi
1:30 PM85 °FPassing clouds.15 mph64%29.80 "Hg37 mi
12:30 PM86 °FPassing clouds.14 mph61%29.83 "Hg37 mi
11:30 AM87 °FPassing clouds.13 mph58%29.86 "Hg37 mi
10:30 AM86 °FWarm.12 mph59%29.88 "HgN/A
9:30 AM87 °FPassing clouds.10 mph60%29.89 "Hg37 mi
8:30 AM86 °FPassing clouds.7 mph61%29.89 "Hg37 mi
7:30 AM82 °FPassing clouds.2 mph69%29.88 "Hg31 mi
6:30 AM75 °FPassing clouds.1 mph78%29.87 "Hg31 mi
5:30 AM74 °FMild.2 mph78%29.85 "HgN/A
4:30 AM75 °FMild.2 mph75%29.84 "HgN/A
3:30 AM75 °FMild.No wind75%29.83 "HgN/A
2:30 AM76 °FMild.1 mph75%29.83 "HgN/A
1:30 AM78 °FWarm.3 mph74%29.83 "HgN/A
12:30 AM79 °FWarm.2 mph70%29.84 "HgN/A
11:30 PM
Fri, Apr 24
79 °FWarm.5 mph72%29.85 "HgN/A
10:30 PM78 °FWarm.5 mph76%29.85 "HgN/A
9:30 PM79 °FWarm.2 mph75%29.86 "HgN/A
8:30 PM81 °FWarm.6 mph70%29.85 "HgN/A
7:30 PM82 °FWarm.10 mph67%29.84 "HgN/A
Weather by CustomWeather, © 2015

See weather overviewHow to use our weather pages